EFTP Weather Reports


Display with metric or nautical units.
time (UTC)temp
F
wind
direction
speed
MPH
gust
MPH
rain 1hr
in
rain 24hr
in
rain mn
in
humidity
%
barometer
mb
20260506072723 45 261 15.0 20.0 0.00 0.00 0.00 37 1011.5
20260506070722 44 255 15.0 21.0 0.00 0.00 0.00 44 1011.3
20260506060722 42 288 9.0 15.0 0.00 0.00 0.00 52 1011.1
20260506050722 39 261 8.0 11.0 0.00 0.00 0.00 72 1010.7
20260506044722 38 257 8.0 11.0 0.00 0.00 0.00 73 1010.5
20260506042722 37 256 8.0 11.0 0.00 0.00 0.00 77 1010.4
20260506040721 36 247 8.0 10.0 0.00 0.00 0.00 83 1010.2
20260506034722 34 252 6.0 7.0 0.00 0.00 0.00 88 1010.1
20260506032721 32 247 6.0 7.0 0.00 0.00 0.00 90 1009.9
20260506030722 31 242 5.0 6.0 0.00 0.00 0.00 92 1009.7
20260506024721 30 238 6.0 8.0 0.00 0.00 0.00 91 1009.5
20260506022721 31 243 5.0 7.0 0.00 0.00 0.00 91 1009.1
20260506020721 32 258 8.0 9.0 0.00 0.00 0.00 92 1009.1
20260506014721 33 262 8.0 10.0 0.00 0.00 0.00 89 1008.9
20260506012721 33 266 8.0 11.0 0.00 0.00 0.00 88 1008.8
20260506010721 33 253 9.0 13.0 0.00 0.00 0.00 89 1008.6
20260506004721 31 247 7.0 8.0 0.00 0.00 0.00 90 1008.4
20260506002721 33 255 8.0 11.0 0.00 0.00 0.00 87 1008.2
20260506000721 30 241 8.0 10.0 0.00 0.00 0.00 88 1008.3
20260505234721 32 230 8.0 9.0 0.00 0.00 0.00 86 1008.1
20260505232721 32 234 8.0 9.0 0.00 0.00 0.00 86 1008.2
20260505230721 31 249 8.0 9.0 0.00 0.00 0.00 85 1008.1
20260505224720 32 259 6.0 8.0 0.00 0.00 0.00 83 1008.0
20260505222720 35 263 7.0 9.0 0.00 0.00 0.00 78 1007.8
20260505220721 36 265 9.0 13.0 0.00 0.00 0.00 74 1007.7
20260505214721 36 267 6.0 9.0 0.00 0.00 0.00 72 1007.7
20260505212721 37 266 8.0 12.0 0.00 0.00 0.00 68 1007.6
20260505210720 37 273 9.0 12.0 0.00 0.00 0.00 65 1007.4
20260505204720 38 272 10.0 13.0 0.00 0.00 0.00 63 1007.2
20260505202721 39 278 10.0 14.0 0.00 0.00 0.00 60 1007.0
20260505200720 39 275 11.0 15.0 0.00 0.00 0.00 60 1006.9
20260505194720 40 277 11.0 16.0 0.00 0.00 0.00 56 1006.8
20260505192720 40 271 9.0 14.0 0.00 0.00 0.00 54 1006.8
20260505190720 41 268 9.0 15.0 0.00 0.00 0.00 52 1006.6
20260505184720 41 271 10.0 14.0 0.00 0.00 0.00 49 1006.3
20260505182720 42 272 11.0 17.0 0.00 0.00 0.00 46 1006.0
20260505180720 43 270 13.0 18.0 0.00 0.00 0.00 46 1005.8
20260505174719 44 272 13.0 18.0 0.00 0.00 0.00 47 1005.6
20260505172719 44 276 12.0 18.0 0.00 0.00 0.00 46 1005.5
20260505170719 45 282 13.0 17.0 0.00 0.00 0.00 46 1005.4
20260505164719 46 271 13.0 18.0 0.00 0.00 0.00 45 1005.1
20260505162719 46 284 10.0 16.0 0.00 0.00 0.00 43 1005.1
20260505160719 45 270 12.0 16.0 0.00 0.00 0.00 45 1004.9
20260505152719 47 258 14.0 23.0 0.00 0.00 0.00 40 1004.6
20260505150719 47 272 11.0 19.0 0.00 0.00 0.00 41 1004.6
20260505124718 46 282 13.0 20.0 0.00 0.00 0.00 44 1004.0
20260505122718 48 258 17.0 27.0 0.00 0.00 0.00 42 1003.8
20260505120718 47 265 17.0 21.0 0.00 0.00 0.00 43 1003.6
20260505114718 46 267 17.0 28.0 0.00 0.00 0.00 43 1003.6
20260505112718 46 265 19.0 27.0 0.00 0.00 0.00 44 1003.4
20260505110718 46 277 13.0 25.0 0.00 0.00 0.00 48 1003.2
20260505100718 46 261 12.0 22.0 0.00 0.00 0.00 52 1002.6
20260505094717 43 266 13.0 21.0 0.00 0.00 0.00 63 1002.6
20260505092717 42 300 10.0 15.0 0.00 0.00 0.00 67 1002.5
20260505090717 43 279 15.0 22.0 0.00 0.00 0.00 66 1002.3
20260505084718 42 269 15.0 25.0 0.00 0.00 0.00 70 1002.2
20260505082718 41 296 11.0 16.0 0.00 0.00 0.00 76 1002.2
20260505080717 40 296 11.0 18.0 0.00 0.00 0.00 79 1002.0
20260505074717 40 287 11.0 19.0 0.00 0.00 0.00 88 1001.9